Location: Phone Location
(34.1440°N, 118.1100°W)
Time: 21:18:34
(UTC-08:00)

ISS - Visible Passes

Search period start: 28 November 2023 00:00
Search period end: 08 December 2023 00:00
Orbit: 416 x 418 km, 51.6° (Epoch: 29 November)

Date Brightness Start Highest point End Pass type
(mag) Time Alt. Az. Time Alt. Az. Time Alt. Az.
01 Dec -0.9 18:39:01 10° NNW 18:39:06 11° NNW 18:39:06 11° NNW visible
02 Dec -2.0 17:50:59 10° NNW 17:53:06 18° NNE 17:53:06 18° NNE visible
03 Dec -2.0 18:38:30 10° NW 18:40:15 28° NW 18:40:15 28° NW visible
04 Dec -3.5 17:50:05 10° NW 17:53:20 47° NE 17:54:44 28° E visible
05 Dec -1.4 18:38:35 10° WNW 18:41:20 24° SW 18:42:40 18° SSW visible
06 Dec -2.7 17:49:36 10° WNW 17:52:50 46° SW 17:56:03 10° SSE visible
